Regional Weather Roundup
Issued by NWS Grand Forks, ND

Home | Current Version | Previous Version | Text Only | Print | Product List | Glossary Off
Versions: 1 2 3 4 5 6 7 8 9 10 11 12 13 14 15 16 17 18 19 20 21 22 23 24 25 26 27 28 29 30 31 32 33 34 35 36 37 38 39 40 41 42 43 44 45 46 47 48 49 50

000
ASUS43 KFGF 271310
RWRFGF
PRAIRIE TO PINES  WEATHER ROUNDUP
NATIONAL WEATHER SERVICE EASTERN NORTH DAKOTA/GRAND FORKS ND
800 AM CDT THU AUG 27 2015

 **SATELLITE DATA USED TO AUGMENT SKY COVER AT AUTOMATED STATIONS**
 *****  WEATHER ACROSS EASTERN NORTH DAKOTA  *****

CITY           SKY/WX    TMP DP  RH WIND       PRES   REMARKS
GRAND FORKS    MOSUNNY   54  51  90 SE6       29.99F
GRAND FRKS AFB MOSUNNY   55  52  91 CALM      29.99F
GRAND FRKS NWS   N/A     54 N/A N/A S3          N/A
DEVILS LAKE    MOSUNNY   57  52  82 CALM      29.98S
FARGO          MOSUNNY   61  55  81 SE7       29.99F
WAHPETON ARPT  PTSUNNY   59  54  82 SE7       30.01S
$$

 ***** WEATHER ACROSS CENTRAL AND WESTERN NORTH DAKOTA  *****

CITY           SKY/WX    TMP DP  RH WIND       PRES   REMARKS
BISMARCK       MOCLDY    61  59  93 CALM      29.96F
MINOT          PTCLDY    55  52  89 N3        29.98S FOG
JAMESTOWN      PTSUNNY   59  57  93 E5        29.97F
MINOT AFB      PTCLDY    56  56 100 CALM      29.98R
GARRISON         N/A     63  60  90 CALM      29.97S
WILLISTON      PTCLDY    58  55  90 N3        29.98S
DICKINSON      FOG       61  59  93 E3        29.99S VSB 1/2
HETTINGER      CLOUDY    57  55  93 CALM      30.01R
$$

 *****  OTHER AIRPORT OBSERVATIONS IN OUR AREA  *****

CITY           SKY/WX    TMP DP  RH WIND       PRES   REMARKS
WALHALLA       FAIR      55  55 100 MISG      29.99S
GRAFTON AIRPOR FAIR      54  54 100 S5        30.01R
VALLEY CITY AR FAIR      57  57 100 CALM      29.99S
CANDO          NOT AVBL
CAVALIER APRT  FAIR      54  52  94 CALM      29.99S
GWINNER          N/A     61  61 100 E3        30.00R
ROLLA          FAIR      54  54 100 N5        30.00S
 ***** THE ABOVE OBSERVATIONS ARE NON NWS ARE NOT QUALITY
       CONTROLLED AND MAY MIS-REPORT RAIN FOR SNOW...
$$

  *****  WEATHER ACROSS NORTHERN MINNESOTA  *****

CITY           SKY/WX    TMP DP  RH WIND       PRES   REMARKS
FLAG ISLAND    SUNNY     61  55  82 CALM      30.02F
WARROAD        SUNNY     54  48  82 S3        30.03F
ROSEAU         SUNNY     54  48  82 CALM      30.02F
HALLOCK        SUNNY     57  54  88 SE9       30.00R
THF RVR FALLS  SUNNY    N/A N/A N/A SE3       30.02F
BAUDETTE       SUNNY     51  49  92 SE3       30.05F
WASKISH        SUNNY     52  52 100 E3        30.05F
CROOKSTON      SUNNY     57  54  88 E5        30.01F
STEPHEN NDAWN    N/A     55  54  94 SE6         N/A
GREENBUSH NDAW   N/A     55  54  94 S3          N/A
$$
  *****  WEATHER ACROSS CENTRAL AND WEST MINNESOTA  *****

CITY           SKY/WX    TMP DP  RH WIND       PRES   REMARKS
FOSSTON        SUNNY     55  52  88 E5        30.04S
BEMIDJI        SUNNY     53  51  92 CALM      30.06S
PARK RAPIDS    MOSUNNY   57  51  80 SE7       30.06S
ELBOW LAKE     FAIR      60  56  87 SE8       30.03R
WADENA         CLOUDY    57  54  88 CALM      30.04F
DETROIT LAKES  CLOUDY    59  54  82 SE5       30.04F
MOORHEAD       MOSUNNY   59  55  88 E7        30.00F
FERGUS FALLS   PTSUNNY   63  55  77 SE6       30.01F
MORRIS MN      CLOUDY    61  57  88 SE6       30.02F
STAPLES        CLOUDY    55  54  94 CALM      30.05F
$$
  *****  WEATHER ELSEWHERE ACROSS MINNESOTA  *****

CITY           SKY/WX    TMP DP  RH WIND       PRES   REMARKS
DULUTH         SUNNY     53  49  86 S3        30.12R
INTRNTL FALLS  SUNNY     49  47  93 SE3       30.07F
ELY            SUNNY     45  43  93 CALM      30.11F
CLOQUET        SUNNY     52  48  87 CALM      30.13R
WHEATON        CLOUDY    57  55  94 SE7       30.02F
BRAINERD       CLOUDY    58  54  86 SE5       30.08F
HIBBING        SUNNY     45  43  93 CALM      30.10F
ALEXANDRIA     PTSUNNY   60  55  83 SE9       30.06S
SAINT CLOUD    MOSUNNY   60  56  86 SE9       30.07F
MINNEAPOLIS    PTSUNNY   62  54  74 SE5       30.11F
$$

  *****  WEATHER ACROSS SOUTH DAKOTA  *****

CITY           SKY/WX    TMP DP  RH WIND       PRES   REMARKS
SIOUX FALLS    TSTM      64  61  90 S7        30.05F
BROOKINGS      CLOUDY    63  57  82 S10       30.06F
WATERTOWN      CLOUDY    63  61  93 S7        30.00F
HURON          CLOUDY    65  63  93 E7        29.93R
SISSETON         N/A     59  58  96 S6        29.99F
ABERDEEN       CLOUDY    65  62  90 E9        29.94F
MITCHELL       CLOUDY    67  64  90 E7        29.91R
PIERRE         CLOUDY    68  63  84 E7        29.90R
MOBRIDGE       MOSUNNY   64  64 100 E14       29.94R
RAPID CITY     CLOUDY    64  59  83 W5        30.03S
$$

  *****  SOME WEATHER IN NEARBY STATES *****

CITY           SKY/WX    TMP DP  RH WIND       PRES   REMARKS
GLASGOW MT     PTCLDY    58  52  80 E8        29.97S
GREAT FALLS MT MOCLDY    59  40  49 SW5       30.03R
CHEYENNE WY    CLOUDY    65  50  58 NW22G35   30.19R
SCOTTSBLUFF NE CLOUDY    65  62  90 NW8       30.03S
OMAHA NE       TSTM      66  58  75 SE13      30.04S
DES MOINES IA  CLOUDY    62  52  69 SE9       30.11S
DAVENPORT IA   SUNNY     59  55  87 S6        30.19S
CHICAGO IL     MOSUNNY   58  54  86 CALM      30.22S
EAU CLAIRE WI  SUNNY     53  52  96 S3        30.15R
LA CROSSE WI   FOG       55  54  96 E5        30.16R VSB 3/4
$$

  *****  SOME NATIONAL WEATHER *****

CITY           SKY/WX    TMP DP  RH WIND       PRES   REMARKS
LA GUARDIA NY  MOSUNNY   71  55  56 NW12      30.06R
RALEIGH NC     PTSUNNY   69  59  70 NE7       30.09R
ATLANTA GA     MOSUNNY   73  63  70 E12G18    30.04R
NEW ORLEANS LA MOSUNNY   76  60  57 NE12      30.02R
OKLAHOMA CITY  PTSUNNY   71  63  75 S6        30.07R
ALBUQUERQUE NM MOCLDY    64  59  83 CALM      30.32F
SALT LAKE CITY PTCLDY    65  55  70 SE7       30.22R
LOS ANGELES CA PTCLDY    72  67  84 CALM      29.96S
BOISE ID       CLOUDY    71  47  42 SE9       30.09R
SEATTLE WA     MOCLDY    59  51  75 S6        30.07S
$$

*** WEATHER ACROSS MANITOBA...SASKATCHEWAN AND ONTARIO ***
                ***ONTARIO***

CITY           SKY/WX    TMP DP  RH WIND       PRES   REMARKS
GERALDTON      PTSUNNY   52  48  87 SW5       30.08F
THUNDER BAY    PTSUNNY   48  46  93 W2        30.14F
SIOUX LOOKOUT  PTSUNNY   55  50  82 SW5       30.07S
TORONTO        MOSUNNY   61  54  77 N8        30.13S
BIG TROUT LK   SUNNY     59  54  82 NW8       29.91S
PICKLE LAKE    MOSUNNY   57  46  67 W9        30.01R
DRYDEN         MOSUNNY   57  50  77 SW6       30.06F
KENORA         PTSUNNY   55  54  94 S7        30.04F
$$
                *** MANITOBA***

CITY           SKY/WX    TMP DP  RH WIND       PRES   REMARKS
BRANDON        MOSUNNY   52  52 100 N2        30.01S
DAUPHIN        SUNNY     52  52 100 W6        29.99S
ISLAND LAKE    MOSUNNY   57  57 100 W3        29.95S
PILOT MOUND      N/A     55  54  94 CALM        N/A
THE PAS        LGT RAIN  55  54  94 CALM      29.94F
THOMPSON       CLOUDY    48  46  93 CALM      29.97S
WINNIPEG       SUNNY     55  52  88 S7        30.00S
LYNN LAKE      MOSUNNY   52  50  93 MISG      29.95S
CHURCHILL      MOSUNNY   46  46 100 W7        29.90F
$$
                ***SASKATCHEWAN***

CITY           SKY/WX    TMP DP  RH WIND       PRES   REMARKS
ESTEVAN        MOCLDY    52  52 100 NE5       30.01S
KINDERSLEY     MOCLDY    50  50 100 N5        29.96S
LLOYDMINSTER   MOCLDY    52  48  87 SW6       29.96F
PRINCE ALBERT  FOG       48  46  93 CALM      29.96S VSB 3/4
REGINA         PTCLDY    54  52  94 SE8       30.00F
YORKTON        PTCLDY    57  55  94 S9        29.99F
N. BATTLEFORD  CLEAR     48  48 100 NE3       29.99F
LA RONGE       MOCLDY    57  52  82 SE8       29.96S THUNDER
SASKATOON      MOCLDY    52  52 100 N6        29.98R
SWIFT CURRENT  PTCLDY    55  52  88 S10       29.98S
$$
NOTE: THESE ARE AUTOMATED STATIONS WITH LIMITED QUALITY CONTROL
      "FAIR" INDICATES FEW OR NO CLOUDS BELOW 12,000 FEET WITH NO
      SIGNIFICANT WEATHER AND/OR OBSTRUCTIONS TO VISIBILITY.
      SKY/WX - SKY CONDITION AND SIGNIFICANT WEATHER.
      TMP - AIR TEMPERATURE.    DP   - DEWPOINT TEMPERATURE.
      RH  - RELATIVE HUMIDITY.  PRES - PRESSURE.
      HX  - HEAT INDEX.         WCI  - WIND CHILL INDEX.
$



USA.gov is the U.S. government's official web portal to all federal, state and local government web resources and services.